sat.trackr.live / text

‹ back to catalog

ORBITER SN3

NORAD 56960 · 2023-084AE

PAYLOAD ACTIVE UNKNOWN

§ Identity

Operator
Country
US
Launch date
2023-06-12
Launch site
AFWTR
Launch vehicle
Mass (kg)
RCS (m²)

External: N2YO · Heavens-Above · Gunter

§ Orbital elements

Epoch: 2026-09-21T23:31:46.841664Z

Period
93.76 min
Inclination
97.6402°
Eccentricity
0.0007385
Mean motion
15.35908207 rev/d
Perigee alt
453.2 km
Apogee alt
463.3 km
Semi-major
6,836.4 km
B*
1.6154e-4
RAAN
49.2239°
Arg perigee
358.8119°
Mean anomaly
1.3105°
Rev number
18,234

§ Raw data

ORBITER SN31 56960U 23084AE  26264.98040326  .00005563  00000+0  16154-3 0  99932 56960  97.6402  49.2239 0007385 358.8119   1.3105 15.35908207182341

JSON: /api/v1/satellites/56960 · /tle

For live sub-satellite position, see the globe view (requires WebGL).

§ Visibility from observer

Set your observer location to see the next 7 days of passes ≥ 10°. The values pass through the URL so the page stays shareable.

No JS? Fill the form by hand. The geolocation button needs JavaScript.